This is the latest recevied weather packets stored in our database for station/object HS9UAC-10. If no packets are shown the sender has not sent any weather packets the latest 10 day(s).
| Time | Temp. | Humidity | Pressure | Rain* | Wind** | Luminosity | Snow |
|---|---|---|---|---|---|---|---|
| 1777798227 | 42.78° C | 39% | 1004 hPa | - | - | 0 W/m² | - |
| 1777797303 | 45° C | 37% | 1004 hPa | - | - | 0 W/m² | - |
| 1777796378 | 43.89° C | 39% | 1004 hPa | - | - | 0 W/m² | - |
| 1777795453 | 41.11° C | 44% | 1004 hPa | - | - | 0 W/m² | - |
| 1777794689 | 40° C | 49% | 1005 hPa | - | - | 0 W/m² | - |
| 1777793765 | 38.33° C | 54% | 1005 hPa | - | - | 0 W/m² | - |
| 1777792840 | 38.33° C | 54% | 1005 hPa | - | - | 0 W/m² | - |
| 1777791915 | 39.44° C | 51% | 1006 hPa | - | - | 0 W/m² | - |
| 1777790991 | 38.33° C | 53% | 1006 hPa | - | - | 0 W/m² | - |
| 1777790067 | 38.33° C | 55% | 1007 hPa | - | - | 0 W/m² | - |
| 1777789142 | 37.78° C | 56% | 1007 hPa | - | - | 0 W/m² | - |
| 1777788217 | 38.33° C | 54% | 1007 hPa | - | - | 0 W/m² | - |
| 1777787292 | 37.22° C | 56% | 1007 hPa | - | - | 0 W/m² | - |
| 1777786368 | 38.33° C | 53% | 1008 hPa | - | - | 0 W/m² | - |
| 1777785443 | 37.78° C | 56% | 1008 hPa | - | - | 0 W/m² | - |
| 1777784518 | 37.78° C | 54% | 1008 hPa | - | - | 0 W/m² | - |
| 1777783594 | 38.33° C | 52% | 1008 hPa | - | - | 0 W/m² | - |
| 1777782669 | 37.78° C | 54% | 1009 hPa | - | - | 0 W/m² | - |
| 1777781745 | 36.67° C | 57% | 1009 hPa | - | - | 0 W/m² | - |
| 1777780820 | 36.67° C | 58% | 1009 hPa | - | - | 0 W/m² | - |
| 1777779896 | 35.56° C | 59% | 1009 hPa | - | - | 0 W/m² | - |
| 1777778971 | 35.56° C | 60% | 1009 hPa | - | - | 0 W/m² | - |
| 1777778046 | 36.67° C | 56% | 1009 hPa | - | - | 0 W/m² | - |
| 1777777122 | 35.56° C | 64% | 1009 hPa | - | - | 0 W/m² | - |
| 1777776197 | 35.56° C | 64% | 1009 hPa | - | - | 0 W/m² | - |
* Rain since midnight (hover to see other rain measurements)
** Current wind speed in m/s (hover to see current wind gust speed)